Wind_Speed
26 25 24 24 24 24 23 22 21 20 19 19 19 18 17 16 15 15 15 14 14 14 12 10 9 9 8 8 9 11 11 11 11 9 10 11 10 10 10 10 8 7
24 24 25 24 24 23 22 21 20 18 17 18 18 18 18 17 16 14 14 14 14 15 13 11 10 9 7 7 8 9 10 10 11 9 10 11 10 10 9 9 8 6
24 25 26 25 23 23 22 21 19 17 16 17 17 17 18 18 16 13 12 13 14 15 14 12 11 9 7 7 7 7 8 9 9 8 9 11 10 9 8 7 7 7
24 26 25 24 22 21 22 21 20 18 17 17 17 16 16 16 15 13 12 11 12 13 14 13 11 9 7 6 6 7 6 6 6 5 7 8 8 8 7 6 6 7
24 25 24 23 22 21 22 21 21 21 20 19 18 16 16 15 14 13 11 11 10 11 12 12 11 9 8 7 6 6 5 5 5 4 4 6 6 6 6 5 5 6
25 26 24 24 23 22 23 23 22 22 21 21 19 18 16 15 14 13 11 11 10 10 10 10 10 9 8 8 7 6 5 6 6 5 4 3 4 5 6 5 4 4
26 26 24 24 25 25 25 24 24 23 21 21 21 19 17 15 13 12 10 10 9 10 10 9 10 9 8 8 9 8 7 6 6 6 5 4 3 4 6 4 2 1
22 24 25 25 26 28 27 26 26 25 22 21 20 19 18 16 14 12 11 10 9 9 9 9 9 9 9 9 10 10 10 9 8 8 8 7 6 5 5 3 2 2
14 17 22 25 26 28 27 26 26 26 23 22 21 20 20 18 15 14 12 12 11 10 10 10 10 10 10 11 12 12 13 12 11 10 10 11 10 8 7 6 5 4
13 13 17 18 18 22 24 24 26 26 24 23 22 21 21 19 17 16 15 14 14 13 13 13 12 12 13 12 13 13 13 13 13 12 12 12 12 11 10 9 7 6
18 19 20 17 12 14 19 22 23 25 23 22 22 21 21 20 19 18 18 17 17 16 15 15 14 14 15 15 15 15 15 14 14 14 14 14 13 13 13 12 10 8
21 20 19 20 15 12 14 16 17 19 19 19 20 19 19 17 16 16 17 17 18 18 18 18 18 18 18 18 18 18 18 17 16 16 15 15 15 15 15 14 12 10
21 18 15 18 17 14 15 17 16 14 14 15 15 15 14 13 12 12 13 15 16 17 17 17 18 20 21 22 22 21 21 20 19 19 18 17 17 17 16 15 13 12
15 15 14 14 14 15 17 17 15 13 12 13 14 14 14 14 13 14 14 15 16 16 16 15 16 17 20 23 24 24 24 23 22 22 21 20 20 19 18 17 15 14
9 11 12 12 12 13 13 13 11 11 11 13 14 14 14 14 15 16 16 16 18 19 19 19 20 20 19 19 21 22 23 24 24 24 24 23 23 22 20 19 18 16
8 8 8 9 9 8 9 8 8 8 8 9 10 11 12 13 14 15 15 16 18 20 19 19 19 20 19 19 19 19 20 21 23 25 25 25 26 26 24 22 21 20
8 7 7 8 7 6 6 6 6 6 7 8 9 10 11 12 12 13 14 15 16 17 16 16 17 17 18 19 19 19 19 19 21 23 24 25 27 28 27 25 24 23
6 7 8 8 7 6 6 6 6 7 7 7 8 9 9 11 12 13 13 13 14 15 14 14 14 14 14 16 17 18 20 20 21 23 24 24 27 29 29 28 27 25
6 7 8 7 7 6 5 5 4 3 2 2 2 3 5 6 9 10 10 10 11 12 12 12 10 10 11 12 14 15 16 18 20 22 23 23 25 28 30 30 28 26
5 5 6 7 7 7 7 6 5 4 3 1 1 1 2 3 5 6 7 7 8 9 10 10 9 9 9 10 10 11 11 13 15 18 20 22 24 27 30 29 27 24
4 3 5 7 7 6 6 4 3 2 2 1 2 2 3 4 5 6 6 6 7 8 9 9 9 9 9 9 9 9 9 10 13 16 18 20 22 24 25 24 21 18
5 4 5 6 5 4 4 3 4 3 3 4 5 6 6 6 6 7 8 8 7 7 8 10 10 10 10 10 9 9 9 9 11 13 15 17 19 20 20 18 16 13
8 7 7 7 7 5 5 5 5 5 5 5 6 8 8 8 9 9 9 9 9 9 9 10 11 12 12 11 10 9 8 6 7 10 11 13 14 15 14 13 12 11
7 7 7 8 8 7 7 7 7 7 6 6 7 8 9 9 10 11 10 10 10 11 12 12 12 12 11 11 9 8 6 6 8 11 13 13 13 12 11 11 12 12
4 5 5 6 6 7 7 8 8 8 8 8 8 8 9 10 11 12 13 12 11 12 13 13 13 12 11 10 8 7 7 9 12 14 15 14 13 13 13 12 11 10
7 7 6 5 5 6 7 9 10 11 11 10 9 9 9 10 11 13 14 12 11 11 13 14 14 13 11 10 9 9 11 13 14 15 15 15 14 14 13 10 8 7
Wind_Direction
182 182 185 186 181 178 178 178 175 172 170 165 159 157 156 154 150 148 150 151 150 147 142 136 128 122 109 99 103 105 104 102 102 111 128 125 117 114 109 100 96 99
190 189 188 189 188 186 184 181 179 177 174 168 162 160 159 159 157 152 150 151 154 155 152 147 142 137 127 115 115 116 112 108 104 104 121 128 126 120 112 103 92 86
196 196 191 189 189 189 188 186 184 184 180 173 169 165 164 163 163 160 157 154 152 155 157 156 152 151 143 132 131 129 117 111 109 105 114 124 129 126 117 109 95 78
198 200 196 193 193 191 190 190 191 191 189 183 177 172 168 166 166 164 161 159 154 152 158 161 160 159 156 146 139 134 125 117 117 114 114 116 124 134 131 122 103 85
199 200 199 197 195 195 194 195 195 196 196 192 185 180 175 170 169 168 162 160 159 154 159 164 166 164 164 165 155 146 146 144 147 152 132 112 115 133 141 136 111 88
198 198 198 198 199 199 200 199 199 198 199 197 192 187 183 177 173 172 167 164 163 161 164 169 174 174 173 178 178 175 170 164 169 175 160 135 122 131 138 139 116 82
193 193 192 195 202 203 202 202 201 198 196 196 195 192 191 187 183 179 177 177 177 176 174 171 175 179 181 188 193 195 190 187 192 192 182 178 175 158 152 152 145 99
193 196 195 198 205 206 205 203 200 196 193 192 194 195 195 195 192 190 190 192 195 197 195 187 183 185 188 194 201 204 206 204 204 203 198 194 200 198 189 191 200 189
197 202 200 204 209 207 203 200 196 195 193 193 194 195 197 199 200 200 202 204 207 207 208 207 204 202 202 205 208 209 211 211 210 210 207 202 206 210 207 207 204 199
186 191 191 196 204 203 198 195 193 195 196 195 193 192 194 198 202 205 208 213 217 215 213 216 219 219 219 220 221 219 218 218 217 216 215 214 215 215 214 216 213 211
172 185 189 185 190 203 201 196 191 189 189 189 189 189 191 194 200 205 209 216 221 220 219 221 224 226 228 231 231 229 226 226 224 221 221 221 222 221 220 223 223 220
176 185 191 189 191 206 211 209 202 191 185 184 187 189 190 194 198 202 209 217 223 224 227 231 232 232 234 237 236 233 230 230 229 227 226 225 226 226 223 224 225 222
186 190 195 194 196 207 217 221 220 209 200 200 201 204 209 215 215 213 216 220 223 224 227 234 240 240 240 241 239 235 232 230 229 229 229 229 229 229 227 226 226 221
189 197 206 203 199 206 216 222 226 226 227 228 228 230 237 244 246 244 240 232 230 233 236 243 251 253 250 246 241 238 234 233 231 229 229 229 229 229 228 228 228 224
199 206 214 213 205 205 213 222 231 237 241 241 241 243 248 252 252 252 250 247 248 254 255 254 255 256 255 250 243 239 236 235 234 232 232 231 228 226 225 225 227 225
189 191 202 210 211 213 220 226 230 233 236 239 243 248 251 254 255 258 261 261 262 264 262 257 254 255 256 253 248 244 239 237 237 236 234 232 229 225 221 220 222 223
179 190 199 205 211 219 222 225 232 236 240 248 254 259 262 263 267 270 271 271 271 270 268 264 262 265 266 263 260 255 251 249 245 243 240 236 231 226 221 218 218 219
180 197 200 204 215 225 225 227 236 245 253 264 270 275 279 278 276 277 279 282 280 277 276 274 273 276 276 273 270 265 263 261 256 251 247 240 232 227 223 218 215 214
189 197 201 205 208 208 204 199 197 202 217 261 287 299 300 291 283 278 279 284 282 274 271 271 275 281 283 281 279 276 272 267 262 255 249 242 236 229 223 217 212 209
186 183 179 171 164 159 158 155 149 141 129 104 28 347 337 327 313 296 286 284 280 269 261 261 267 276 283 285 287 289 286 277 265 256 250 245 239 229 221 215 210 206
197 192 170 161 160 161 163 169 183 197 211 253 284 302 315 321 326 325 320 309 292 273 259 258 265 276 285 289 291 292 292 285 268 254 245 239 231 221 213 206 201 198
216 228 212 195 194 199 200 210 223 237 255 268 278 284 289 297 309 321 325 318 301 280 263 260 268 280 286 290 292 291 291 285 266 247 234 225 214 206 201 197 195 202
232 246 235 216 215 223 227 229 227 232 248 262 276 284 287 294 302 309 314 309 293 274 260 257 262 268 274 279 286 291 293 278 243 217 201 193 188 187 191 191 191 200
238 241 229 215 219 226 224 222 221 223 239 258 273 284 292 302 307 305 303 303 293 274 260 256 256 255 260 267 272 277 274 240 206 185 169 161 157 158 168 175 177 185
265 246 238 231 236 235 226 226 231 240 258 269 270 275 286 296 305 308 306 303 295 272 253 248 248 248 250 252 247 237 225 209 193 177 162 156 158 162 169 177 185 193
286 278 273 265 259 259 262 265 267 271 274 269 260 260 272 286 298 306 306 301 290 268 246 237 237 233 225 220 214 205 201 197 193 185 176 171 173 177 179 179 183 192
Height
814 817 819 821 822 822 821 821 822 823 823 824 825 826 827 828 828 828 829 829 829 829 829 830 830 830 831 831 831 831 831 831 831 832 832 832 832 832 833 833 833 833
814 816 817 820 822 822 822 822 823 824 825 825 826 826 827 827 828 828 829 829 829 830 830 830 830 831 831 831 832 832 832 832 832 832 832 832 833 833 833 834 834 834
813 816 816 818 820 821 822 822 823 825 826 827 827 827 827 828 828 828 829 829 829 830 830 830 831 831 831 832 832 832 833 833 833 833 833 833 834 834 834 834 834 835
812 815 816 816 818 820 821 822 823 825 827 828 828 828 828 828 828 828 829 829 829 830 830 830 831 831 831 832 832 833 833 834 834 834 834 835 835 835 835 835 835 835
811 814 815 815 817 818 820 821 822 824 826 827 828 828 828 828 828 828 828 829 829 829 829 830 830 830 831 831 832 832 833 834 834 835 835 835 836 836 836 836 836 837
808 811 813 814 816 817 818 819 820 822 824 826 827 828 828 827 828 828 828 828 828 828 828 829 829 830 830 831 831 832 832 833 834 834 835 836 836 837 837 837 837 838
807 809 811 813 814 815 816 817 819 820 822 824 825 826 827 827 827 827 827 827 827 827 827 827 828 828 829 830 831 831 832 832 833 833 834 835 836 837 837 838 838 838
808 810 811 812 813 813 814 815 817 818 820 821 823 824 824 825 825 825 825 825 825 826 826 826 826 826 827 828 828 829 830 830 831 832 833 834 835 836 837 837 838 838
808 811 812 813 813 813 813 815 816 816 817 818 819 820 821 822 823 823 823 823 823 824 825 826 826 825 825 825 826 826 827 829 830 830 831 832 833 834 835 836 836 837
807 813 814 813 813 814 815 815 815 815 815 815 816 818 819 820 820 821 822 822 822 822 823 824 824 825 825 825 825 826 826 827 828 829 830 831 831 832 833 834 835 836
807 812 813 812 815 817 817 816 814 813 813 814 814 815 817 818 818 819 819 820 821 821 822 822 822 823 824 824 824 825 825 826 827 828 829 830 830 831 832 833 834 834
807 810 810 811 815 818 818 818 817 814 813 813 814 815 816 817 818 818 819 819 820 821 821 821 821 821 822 822 823 824 824 825 826 826 827 828 829 830 831 831 832 833
806 807 809 810 813 816 818 818 817 814 812 813 814 815 815 816 817 818 819 818 819 820 820 821 821 820 821 821 821 822 823 823 824 825 825 826 827 828 829 830 831 832
804 806 807 809 810 813 816 816 813 811 811 812 813 814 814 815 816 817 817 818 818 819 819 819 820 820 820 820 820 821 821 822 822 823 824 824 825 827 828 829 830 830
804 805 806 807 808 810 811 811 810 810 810 811 811 812 813 813 814 815 815 816 816 817 817 817 818 818 818 818 819 819 820 820 821 822 822 823 824 825 826 827 828 829
803 804 805 806 806 807 808 808 808 809 809 810 810 811 811 812 812 813 813 814 814 815 815 815 816 816 816 817 817 818 818 819 819 820 820 821 822 823 823 824 826 827
803 804 805 805 806 806 806 806 807 808 808 809 809 809 810 810 811 811 811 812 813 813 813 814 814 815 815 815 816 816 817 817 817 818 818 819 820 821 821 822 824 825
804 804 805 805 806 806 806 806 807 807 808 808 808 809 809 809 809 810 810 811 811 811 812 812 813 813 813 813 814 814 815 815 815 816 816 817 818 819 820 820 821 822
804 804 805 805 805 806 806 806 807 807 807 808 808 808 808 808 808 809 809 810 810 810 811 811 811 811 811 812 812 812 813 813 813 814 814 815 816 817 818 818 819 820
804 804 804 805 805 805 806 806 807 807 807 807 808 808 808 808 808 808 809 809 809 809 810 810 810 810 810 811 811 811 811 811 812 812 813 814 814 815 816 817 818 819
803 804 804 805 805 805 806 806 806 806 807 807 807 807 807 808 808 808 808 808 809 809 809 809 809 809 809 810 810 810 810 810 810 810 811 812 813 814 815 816 818 820
803 803 804 804 805 805 805 805 805 806 806 806 806 806 807 807 807 807 807 808 808 808 808 808 808 808 808 809 809 809 809 809 809 809 809 810 812 813 815 816 818 820
802 802 803 803 804 804 804 805 805 805 806 806 806 806 806 806 806 806 806 807 807 807 807 807 807 807 807 808 808 808 808 808 808 808 809 810 812 813 815 816 818 819
801 801 802 802 803 803 803 804 804 805 805 805 806 806 806 806 806 805 805 806 805 805 805 805 806 806 806 806 807 807 807 807 808 809 810 811 812 814 815 817 818 820
800 801 801 802 802 802 802 803 803 803 804 804 805 805 805 805 805 805 805 805 804 804 804 804 804 804 805 805 806 806 807 808 808 809 810 811 813 814 815 817 818 819
800 800 800 800 801 801 801 802 802 802 803 803 803 804 804 804 804 804 804 804 803 803 803 803 803 803 804 804 805 806 807 808 808 809 810 812 813 814 814 816 817 818